Temp
23 23 25 29 30 31 32 34 37 38 40 42 42 41 40 40 38 30 36 35 31 27 27 27 27 27 27 26 26 26 26 26 26 25 25 24 23 22 21 22 22 22 22 22 22 22 22 22 23
22 26 28 31 29 31 33 36 37 39 41 42 41 41 40 39 38 37 35 35 30 27 27 26 27 27 27 27 26 26 26 25 25 25 25 24 23 22 21 21 22 22 22 22 22 22 22 22 23
21 24 29 30 30 31 33 37 38 40 42 41 40 41 40 38 39 36 34 33 28 26 26 26 27 27 27 27 26 26 26 25 25 25 24 24 23 22 21 21 21 22 22 22 22 22 23 23 24
25 28 30 29 31 33 34 36 38 40 41 41 40 39 40 38 38 36 34 32 28 26 26 26 26 27 27 27 26 25 25 25 25 25 24 23 23 22 21 21 21 21 22 22 23 23 23 23 23
27 30 28 29 30 33 36 37 37 38 39 40 40 39 39 37 36 36 35 33 30 27 26 26 26 27 27 27 26 26 25 25 25 24 24 23 23 22 21 21 22 22 22 22 23 22 22 22 22
27 29 28 29 31 34 35 37 38 39 39 40 39 39 38 36 36 36 35 34 32 29 26 26 26 26 27 26 26 26 25 25 24 24 24 24 23 23 22 22 22 22 22 22 22 22 22 22 22
27 28 28 29 31 33 35 37 37 37 38 39 40 38 38 37 36 36 35 35 33 30 26 24 24 25 26 26 25 25 25 24 24 23 23 23 23 22 22 22 22 22 22 22 22 22 22 22 22
28 28 28 30 31 32 35 37 38 38 37 40 40 37 38 37 36 35 35 35 33 31 27 24 23 23 25 25 25 24 24 24 23 23 23 23 23 22 22 22 22 22 22 22 22 22 22 22 23
29 27 27 28 30 32 35 35 37 39 38 39 39 39 39 36 36 35 35 34 33 32 28 25 24 23 24 23 23 24 23 23 22 23 23 22 22 22 22 22 22 22 22 22 22 22 23 23 24
26 26 27 29 31 32 33 34 36 36 37 37 37 38 38 36 36 35 35 35 34 32 28 26 25 24 25 24 23 23 23 22 22 22 23 23 23 23 22 23 23 22 22 22 23 23 24 24 25
27 26 28 29 30 31 32 32 34 34 35 37 36 36 38 37 37 37 36 35 34 32 30 27 26 25 26 25 23 22 22 22 22 22 23 24 24 24 24 24 23 23 23 24 23 24 24 25 24
26 27 28 28 29 29 29 31 31 32 34 37 37 37 37 38 38 37 37 36 35 33 31 28 26 26 27 26 24 24 23 23 23 23 24 24 25 25 25 24 24 24 24 25 24 25 25 25 25
26 27 28 28 28 28 29 28 29 30 32 34 36 36 36 36 37 38 36 37 35 33 32 29 27 27 27 26 25 24 24 24 24 24 24 24 25 25 25 26 26 25 26 26 26 26 26 26 25
25 26 26 27 27 27 27 28 28 29 31 32 33 34 35 36 36 37 36 36 36 33 32 28 27 27 27 26 26 25 25 25 25 24 24 24 25 25 25 25 26 26 26 27 26 26 26 26 26
25 24 25 25 26 26 27 26 26 29 29 30 31 32 34 34 35 36 36 35 35 32 30 28 27 28 28 27 27 27 26 26 26 25 25 25 25 25 25 25 25 26 26 26 25 26 26 26 25
23 23 22 25 26 26 26 24 26 28 29 28 29 31 32 33 34 35 35 35 35 34 29 27 27 27 28 27 27 27 27 26 26 26 25 25 25 24 25 25 26 26 26 26 25 25 25 24 24
23 21 23 24 27 26 26 25 27 28 28 28 29 30 31 32 32 32 33 34 34 34 27 26 26 26 27 26 27 27 27 27 27 26 25 24 25 24 25 26 26 26 25 24 24 23 22 22 21
22 23 24 23 24 25 24 25 27 28 28 28 29 29 30 31 32 32 32 33 33 33 27 25 25 26 26 26 26 27 27 27 28 27 25 25 24 25 24 25 24 24 23 22 21 21 21 21 20
22 23 23 24 24 24 23 24 25 27 28 28 29 29 30 30 32 32 32 32 32 32 27 27 25 25 26 25 26 26 26 27 27 27 25 24 24 24 24 24 23 21 20 19 19 20 20 19 19
23 22 22 24 25 25 24 23 25 26 27 28 28 29 30 31 31 31 32 32 31 31 27 25 26 25 25 24 25 27 26 27 27 25 24 24 24 23 23 24 22 20 20 19 18 18 18 19 19
21 21 22 22 24 24 23 23 23 25 26 27 28 29 30 30 31 31 31 31 30 30 27 24 25 25 24 24 26 27 27 27 25 24 24 24 23 22 23 22 21 21 20 18 18 17 18 19 20
20 23 22 22 21 19 22 19 22 23 25 26 27 29 29 31 31 31 31 31 29 30 26 24 23 23 24 25 25 27 27 26 25 24 23 23 23 22 21 20 20 19 18 17 17 18 19 18 19
21 22 22 21 20 20 21 20 22 24 24 25 26 27 29 31 31 32 32 32 32 28 25 24 23 24 24 24 26 26 27 26 25 23 22 21 20 20 20 18 18 18 18 18 18 18 18 17 17
22 20 21 21 21 18 20 21 21 23 23 26 27 27 29 30 31 31 33 33 32 26 24 24 23 23 23 25 25 26 26 24 23 21 20 19 19 18 18 18 18 18 18 18 17 16 16 16 16
20 18 17 16 17 17 21 19 21 23 24 25 27 28 29 30 30 30 32 33 31 26 24 23 23 23 23 22 23 24 23 24 22 21 19 18 18 18 18 17 17 16 16 16 16 16 16 15 15
19 18 16 17 18 18 16 15 19 24 25 26 28 29 29 29 29 30 31 33 29 25 24 23 23 23 23 23 23 22 22 22 22 22 19 18 18 17 17 16 16 15 15 16 16 15 15 15 15
17 17 19 17 17 17 20 23 24 24 25 25 26 28 29 29 29 29 31 32 29 25 24 23 23 23 23 23 22 22 23 23 21 19 18 18 16 16 15 15 15 15 15 15 15 15 14 15 15
19 20 15 16 16 18 21 21 20 21 24 25 26 27 29 30 30 30 32 32 27 24 23 23 22 23 23 22 22 22 20 20 19 18 18 17 16 15 15 15 15 15 14 15 15 15 14 14 14
18 16 18 17 17 17 18 19 22 22 23 23 26 27 30 30 31 31 32 31 25 24 22 22 23 23 22 22 21 19 18 19 18 17 16 15 14 15 15 15 15 14 14 15 15 15 14 14 14
19 18 17 14 16 19 18 17 20 21 23 24 24 26 27 31 32 33 33 27 23 24 22 22 23 23 22 22 19 19 18 17 17 15 15 14 14 15 15 15 15 15 14 14 14 14 14 13 13
Height
756 757 758 753 765 749 747 731 703 700 686 662 662 672 680 679 696 743 696 698 700 708 717 724 731 735 739 743 748 752 756 758 761 764 767 770 773 776 780 782 785 787 789 790 792 793 795 796 797
756 756 754 745 762 758 738 710 709 689 673 659 664 670 681 689 675 684 697 700 703 708 716 724 731 736 740 744 748 753 757 761 764 767 770 773 776 779 782 784 786 789 791 792 794 795 796 797 797
755 754 752 750 749 744 735 702 689 676 662 662 676 670 678 688 677 688 695 701 707 713 718 726 731 736 740 745 750 754 759 762 766 770 773 775 778 782 784 787 788 790 792 794 796 797 798 798 799
753 749 744 749 739 719 719 700 681 672 661 659 668 689 672 679 682 688 696 703 711 717 724 726 732 736 741 746 751 756 761 764 768 771 775 777 779 783 787 789 791 792 794 795 797 797 798 799 800
750 738 752 744 734 717 699 689 687 684 673 669 668 688 682 679 685 692 697 703 710 718 724 728 732 737 743 747 752 757 762 766 770 773 776 779 781 784 787 790 793 794 795 796 797 798 799 800 800
747 740 749 742 727 707 696 688 683 678 671 668 677 679 681 682 685 690 695 701 709 716 723 730 734 739 744 749 754 758 763 767 771 774 777 779 782 785 787 791 793 795 796 797 798 799 799 799 800
745 741 742 733 722 706 692 678 686 683 677 674 668 686 676 677 683 687 694 698 708 716 723 730 736 741 746 750 755 760 764 768 772 775 777 780 783 786 788 792 793 797 797 797 798 799 798 799 800
737 736 736 722 721 712 687 676 668 676 680 663 665 689 686 676 683 687 693 697 706 717 723 730 738 742 747 751 757 761 766 770 773 776 778 781 784 787 790 792 794 796 797 797 798 799 799 800 799
730 743 735 728 721 708 685 686 667 658 668 667 668 673 671 677 682 687 693 699 702 716 724 732 737 742 749 752 756 761 768 771 774 776 778 782 785 788 790 793 795 796 796 797 798 798 799 798 798
736 737 728 716 708 704 693 687 680 676 670 673 673 671 674 677 682 688 692 696 703 713 724 731 738 742 747 754 756 762 767 771 774 777 778 781 785 788 790 792 794 795 796 796 797 797 797 796 795
728 732 723 715 706 700 699 693 683 683 682 670 680 682 672 673 678 683 689 694 700 708 719 726 735 741 746 752 756 762 766 771 774 777 778 780 785 787 789 791 792 793 794 794 795 795 795 795 795
729 718 716 714 709 708 708 698 696 689 681 665 668 673 673 672 671 679 682 688 696 704 712 719 729 739 745 750 757 762 765 770 773 776 778 779 783 785 787 788 788 791 792 792 793 792 794 794 795
723 718 713 711 711 710 708 707 705 698 682 674 669 670 673 671 670 675 682 684 689 697 705 713 724 734 743 748 755 760 764 768 771 774 777 779 782 784 786 787 789 789 790 790 790 791 792 792 791
724 720 716 712 711 712 715 708 709 699 690 685 680 677 673 672 671 673 679 685 686 691 698 704 718 729 741 746 752 758 761 765 769 772 775 778 781 783 785 786 788 788 788 789 789 789 790 790 790
723 727 720 717 715 715 711 716 711 701 696 693 688 682 676 677 675 675 676 684 688 689 681 670 699 725 737 744 749 756 759 763 766 770 773 777 780 781 784 786 787 787 787 787 787 787 788 787 787
733 729 733 713 708 706 713 721 706 699 701 699 693 688 682 679 678 678 679 684 690 693 691 684 706 723 733 742 748 754 757 761 764 767 771 775 778 779 781 783 784 784 785 786 786 786 786 787 787
727 734 722 710 695 698 700 707 696 694 695 696 695 690 685 682 681 681 683 685 690 694 698 702 711 721 731 740 746 751 755 759 762 765 768 773 775 777 779 780 782 783 783 784 785 785 787 787 787
721 714 709 713 704 700 703 694 683 683 687 688 686 687 684 682 679 680 684 686 689 694 698 703 711 718 729 738 746 749 753 756 759 763 766 770 773 775 777 780 780 781 783 785 786 788 789 789 789
722 709 708 699 698 701 705 700 690 678 675 677 677 678 676 677 674 677 680 684 688 692 696 706 714 718 728 735 742 745 749 754 758 761 764 769 772 774 776 779 780 783 785 787 789 790 791 790 790
708 714 708 694 688 691 695 699 686 681 675 669 669 668 667 665 669 672 674 677 681 689 694 701 713 716 724 733 739 742 747 752 756 759 763 767 772 775 778 780 780 784 786 787 789 789 791 792 790
713 713 710 704 692 687 692 692 688 681 670 666 662 659 655 658 660 664 666 667 676 684 691 699 706 715 719 730 735 740 746 751 755 758 763 767 769 773 779 780 781 785 787 787 790 792 793 793 792
714 700 704 703 706 717 695 712 692 680 670 664 659 654 651 648 650 653 658 662 671 677 686 698 705 715 719 728 735 740 746 750 755 759 764 771 773 770 776 779 783 786 788 791 791 795 797 796 795
706 701 700 701 707 706 692 697 679 665 667 661 655 651 644 640 643 644 649 655 662 672 683 693 702 705 720 727 733 742 747 750 755 761 764 768 770 774 780 782 784 787 789 792 792 794 797 797 798
693 705 700 698 698 709 683 687 675 669 663 650 643 642 636 636 639 639 640 648 655 667 680 690 699 707 717 723 726 738 750 754 756 760 764 770 773 777 782 785 784 787 788 791 794 794 797 798 798
699 715 718 719 713 700 672 685 667 650 644 641 633 633 630 632 638 638 637 639 650 664 676 686 697 704 714 722 726 727 746 753 756 758 765 768 775 780 783 784 785 788 789 793 797 797 799 799 799
697 709 717 705 693 687 696 698 665 633 629 626 620 619 623 631 635 635 632 633 644 661 671 679 690 700 710 719 724 732 738 748 748 758 762 767 776 779 782 783 787 789 792 794 796 796 801 800 800
704 705 695 702 701 694 668 640 628 626 623 623 618 613 614 620 628 628 626 627 639 657 666 674 686 695 706 715 722 729 740 746 750 759 762 768 774 777 781 784 788 790 793 795 799 800 801 802 802
695 687 710 700 701 684 654 649 656 640 624 617 612 608 598 605 614 617 616 621 634 650 663 677 687 692 701 709 720 732 742 748 753 758 764 768 769 776 782 785 788 792 795 798 801 803 803 803 802
693 698 686 691 687 686 672 661 637 637 629 626 608 595 585 592 601 604 609 616 630 648 658 674 682 691 699 708 721 727 735 745 757 764 764 767 769 776 782 789 790 795 799 802 804 804 804 804 804
678 685 689 700 686 665 668 668 643 638 628 622 620 597 587 584 588 592 601 617 630 642 655 669 678 688 698 711 717 725 733 735 766 769 765 768 771 779 786 792 794 800 801 804 805 805 806 807 806
Wind_Speed
12 10 10 14 7 8 17 21 21 23 24 11 9 6 7 6 6 7 10 12 33 32 33 29 24 23 21 21 20 19 19 17 16 16 17 18 20 20 17 17 16 15 13 12 10 8 6 3 2
10 13 15 7 9 15 16 21 23 21 21 6 3 5 8 6 19 17 14 19 31 34 35 29 27 23 21 20 19 19 19 17 16 16 16 17 19 19 16 16 15 12 11 10 8 6 4 2 1
12 15 9 6 14 19 18 22 21 21 20 13 4 4 5 8 13 9 25 26 29 31 34 29 28 24 21 20 20 20 20 19 17 16 15 17 18 17 15 14 13 11 10 8 7 5 2 1 0
8 8 7 13 23 22 28 24 26 24 15 12 8 9 7 10 7 16 23 27 26 26 26 28 28 25 21 20 21 21 20 19 17 16 15 16 17 17 14 13 10 9 8 6 5 4 2 1 0
17 7 11 17 25 26 24 24 26 28 26 4 11 14 6 12 13 17 18 24 24 23 24 26 28 25 22 20 21 21 20 18 17 16 15 15 16 17 14 12 8 7 6 5 4 3 1 0 1
9 11 15 19 25 24 23 25 26 24 26 14 13 13 4 17 15 12 18 20 22 26 25 25 27 24 23 21 22 21 20 18 17 16 15 14 15 16 15 12 8 6 5 4 3 2 1 2 3
17 14 21 24 25 25 23 22 24 26 23 20 13 17 10 19 19 18 13 20 21 25 25 22 26 25 23 22 21 20 19 18 17 15 14 14 14 15 14 12 8 6 5 4 3 3 3 4 4
14 15 26 24 21 28 24 25 23 24 27 20 11 17 10 13 21 18 14 21 23 26 25 24 22 22 23 22 20 19 18 17 16 15 14 13 14 14 13 11 9 7 6 5 5 5 5 6 6
18 16 19 26 27 24 20 23 25 20 22 25 19 20 5 19 14 14 18 20 25 24 25 26 25 23 20 19 20 19 17 17 16 15 14 14 12 14 11 9 9 7 6 6 5 5 6 7 8
17 17 25 23 23 22 24 26 24 24 18 17 12 16 13 19 16 15 14 16 23 25 25 26 26 26 24 20 20 20 18 17 15 14 16 15 15 11 10 11 9 8 7 7 6 6 6 7 6
19 21 23 25 25 23 25 27 26 24 24 17 15 18 24 15 13 14 18 20 27 30 30 32 28 26 25 25 22 19 18 17 16 16 16 15 16 10 14 12 10 9 8 7 6 5 5 3 8
18 22 23 24 25 25 26 25 26 24 24 16 15 18 22 22 14 15 14 24 25 27 33 37 35 29 26 28 25 21 21 19 19 18 15 14 14 15 14 13 11 5 11 2 13 11 5 3 8
18 19 19 20 22 23 25 26 25 27 26 23 16 17 18 21 15 17 17 18 28 30 32 40 38 33 26 29 27 24 22 21 18 18 16 12 13 14 11 6 6 7 10 9 8 9 8 6 10
18 20 21 20 19 20 24 27 23 28 26 25 23 21 14 14 15 14 18 20 13 32 34 46 41 37 29 28 28 26 25 20 21 20 16 13 15 13 11 6 10 6 8 6 8 8 9 11 12
19 19 19 20 19 24 20 25 28 27 26 25 24 21 18 16 13 12 17 11 8 27 33 48 46 39 32 27 28 23 23 21 19 20 19 16 14 13 11 11 10 9 9 9 7 7 7 8 6
21 21 20 20 21 23 23 26 27 26 25 27 26 22 20 18 19 17 8 15 13 8 29 31 37 40 35 23 25 21 22 20 18 20 19 17 16 10 16 13 12 10 9 10 11 6 4 3 4
16 17 23 25 23 20 25 29 26 25 25 26 24 23 22 18 20 23 17 14 18 14 32 38 39 37 36 23 25 20 24 22 21 22 21 19 16 13 13 10 12 10 7 5 3 1 4 7 9
18 18 17 17 21 19 18 20 22 21 25 26 23 26 23 22 20 25 25 20 21 13 32 35 36 39 38 30 24 21 25 18 19 19 24 22 17 15 16 9 7 8 5 3 2 6 6 8 9
23 20 23 19 21 21 19 21 25 22 22 25 24 25 25 26 21 23 30 28 18 15 30 31 31 39 37 33 27 22 23 17 20 18 23 21 17 14 16 7 6 4 4 4 2 2 3 4 14
22 20 24 23 22 20 19 25 24 22 23 20 21 22 25 23 24 21 25 30 30 22 28 34 30 40 35 31 27 22 27 21 21 22 19 18 15 13 11 6 9 7 2 1 2 3 3 5 6
22 19 22 24 23 23 22 24 23 23 23 25 22 25 22 26 21 21 22 23 31 29 29 35 37 37 34 34 29 25 25 22 21 21 18 16 16 10 7 7 9 6 3 5 2 5 3 6 6
23 22 23 22 21 18 20 18 22 22 24 24 26 23 24 21 23 21 22 15 30 30 34 33 33 34 37 36 23 21 19 20 19 21 17 14 13 16 12 13 8 12 10 10 8 8 9 10 11
18 16 18 20 19 20 28 13 18 19 24 25 25 24 27 19 21 18 24 21 28 34 35 38 39 43 39 32 22 20 20 19 24 20 22 17 16 15 13 15 14 12 11 10 11 10 9 12 13
20 15 21 20 18 17 27 19 21 20 25 24 24 28 25 21 17 16 16 28 30 38 36 35 34 34 31 36 31 19 16 20 22 21 21 20 20 20 15 17 15 14 14 10 8 9 9 10 11
13 17 10 7 9 16 18 11 18 23 25 29 24 27 23 17 18 18 18 18 23 34 35 35 36 38 37 31 33 35 23 22 24 23 24 25 25 19 17 16 16 13 13 12 11 11 10 12 11
15 12 10 11 11 12 5 9 9 26 23 24 24 24 22 21 19 22 21 18 26 33 37 37 37 37 39 31 31 34 40 26 29 23 29 26 20 22 19 17 16 16 15 12 11 11 11 12 11
7 10 19 19 17 15 17 26 17 19 18 23 24 23 28 29 28 28 24 18 30 36 36 36 38 37 40 36 33 29 30 24 26 32 30 27 26 22 20 19 19 16 14 14 10 14 12 11 12
20 19 5 8 7 15 16 11 8 13 9 17 22 23 29 30 29 27 23 19 35 38 38 36 38 40 38 36 33 32 32 34 32 31 28 28 29 25 23 20 18 16 14 13 11 10 11 12 14
12 11 12 9 8 7 13 6 9 16 14 16 16 21 16 27 29 25 21 17 36 38 40 39 41 40 37 38 36 39 37 35 27 29 29 29 29 25 23 20 20 17 15 12 10 12 13 13 14
21 17 16 5 6 12 10 5 10 16 17 12 23 21 16 26 25 22 20 25 26 35 37 40 43 40 40 38 39 40 39 38 27 28 29 29 29 25 23 20 19 16 15 13 13 13 13 14 14
Wind_Direction
250 251 248 257 239 227 245 246 243 262 277 233 291 298 344 6 66 141 116 114 129 141 157 159 160 161 167 167 168 170 169 167 164 159 152 144 143 142 132 133 132 134 135 133 134 138 139 123 86
255 236 230 269 236 241 243 238 250 247 254 282 302 308 297 0 96 122 117 129 134 148 159 163 164 166 170 173 173 174 174 173 169 164 154 147 147 147 140 138 136 135 136 139 141 144 147 142 108
250 257 246 224 239 238 247 250 246 238 262 216 179 264 277 53 53 84 122 129 133 145 155 169 166 169 169 173 176 177 178 177 171 167 160 152 153 153 145 142 138 133 134 136 137 142 160 185 207
217 233 244 253 247 233 241 259 268 278 223 197 169 249 114 67 67 118 132 135 132 144 153 169 168 167 171 172 172 176 179 177 173 169 165 161 159 158 151 148 143 134 136 140 149 149 154 172 303
230 240 231 242 245 252 262 237 252 270 277 255 180 231 178 114 119 127 141 148 141 148 162 171 169 168 172 172 172 175 180 179 177 174 169 167 165 164 158 159 157 151 148 154 157 155 164 277 301
222 234 245 239 248 253 242 258 266 257 261 256 253 241 196 130 133 142 156 158 147 149 158 170 172 172 172 173 175 176 180 180 180 177 175 170 171 171 171 172 170 168 162 164 174 189 231 274 286
245 231 239 249 259 261 245 240 240 261 266 255 223 250 174 159 137 141 154 152 147 147 142 160 169 174 173 174 177 178 181 181 183 180 178 175 174 174 173 176 170 183 177 192 218 248 265 283 297
230 252 255 248 251 257 264 274 238 231 254 261 247 250 266 105 132 133 149 149 150 152 145 155 161 166 167 171 179 179 185 184 184 180 177 177 175 178 177 181 182 198 213 234 248 264 285 291 290
247 243 249 249 256 262 266 268 277 274 230 246 221 257 181 129 138 138 151 151 147 151 140 156 161 164 159 162 173 177 185 184 181 180 177 171 166 174 186 180 222 229 235 239 254 273 284 289 282
234 247 246 253 265 268 270 274 275 276 260 237 227 252 245 144 158 153 161 160 162 155 152 160 163 163 163 163 169 172 176 179 173 175 172 160 173 175 184 198 215 235 243 249 262 273 279 276 290
237 245 257 264 269 270 278 284 295 283 276 225 219 246 259 178 174 181 175 180 170 161 159 159 163 165 167 166 162 160 168 173 172 176 171 161 178 177 177 200 223 234 235 248 246 265 258 273 293
249 257 259 265 270 278 280 289 289 290 286 285 240 216 247 251 203 180 207 182 175 167 163 158 159 166 171 169 161 166 167 174 176 178 175 177 186 180 196 200 190 205 223 208 238 255 253 240 270
266 270 268 267 271 273 275 274 278 283 289 296 274 267 228 256 240 230 209 212 175 167 165 155 158 165 171 165 161 169 173 176 178 180 179 192 184 181 202 229 193 170 214 219 212 242 199 270 257
282 287 287 284 279 265 265 264 265 268 278 284 287 285 265 261 259 217 186 231 209 165 163 152 156 164 168 158 166 177 173 175 179 179 178 188 189 185 197 223 219 227 245 211 216 238 234 257 268
281 268 269 264 261 267 271 265 250 258 267 271 276 277 267 270 263 267 189 219 247 154 155 156 150 163 168 162 166 175 169 170 181 174 175 181 191 181 191 201 214 222 218 242 266 265 266 246 317
271 271 268 262 256 245 244 252 254 251 247 256 263 269 266 253 264 265 242 175 225 198 143 139 150 162 166 160 167 173 167 173 182 167 171 181 187 192 190 202 209 230 212 221 224 213 214 349 2
248 252 256 260 253 243 238 239 244 247 249 237 249 258 259 250 252 265 274 241 190 236 142 146 155 159 166 165 172 179 170 181 182 167 168 177 183 184 193 206 213 210 224 242 243 146 52 31 21
260 256 259 285 290 298 303 285 248 240 238 243 236 234 245 251 234 235 251 246 193 218 150 149 154 159 166 169 174 187 171 183 170 161 165 174 181 190 191 204 151 178 221 299 55 80 75 43 16
291 284 280 270 254 270 283 291 286 280 236 233 228 243 226 228 236 236 222 237 206 208 161 167 161 160 169 170 183 175 171 182 160 169 164 171 182 186 191 197 178 140 83 70 54 70 32 349 359
280 285 281 279 278 276 255 248 263 269 270 260 236 233 242 215 220 230 240 207 190 198 159 165 184 166 169 177 185 176 170 170 161 149 153 164 177 184 195 185 159 126 107 346 40 45 1 336 359
270 264 272 285 290 289 279 272 261 268 260 264 253 244 237 232 210 211 228 182 184 196 167 162 170 175 170 180 186 176 168 166 142 150 156 165 167 170 191 142 117 100 73 110 347 42 30 349 8
246 250 265 275 283 273 281 274 275 273 245 242 254 230 241 224 226 201 219 209 179 187 164 161 162 168 170 183 183 168 166 156 150 151 157 160 164 141 133 123 125 113 80 80 69 40 7 8 3
285 293 283 282 269 279 263 257 265 247 243 258 235 254 226 227 211 220 199 205 188 161 155 162 169 170 177 175 171 171 158 158 152 139 131 140 118 125 116 114 115 104 94 83 77 53 31 37 19
268 267 262 267 265 259 256 258 258 250 258 242 223 241 221 220 224 239 209 201 173 150 157 163 167 162 169 167 155 165 168 144 137 138 130 128 119 119 121 121 116 112 107 93 82 75 45 48 26
300 248 266 256 233 252 258 275 270 269 242 257 219 229 220 217 217 232 231 183 168 152 161 161 168 163 169 169 169 160 160 172 145 141 135 130 128 130 126 117 100 95 91 81 67 67 55 40 34
233 264 244 264 264 287 209 225 237 241 245 243 245 226 206 205 221 231 229 197 156 154 163 166 169 164 170 171 165 166 169 164 147 156 136 132 134 123 125 112 105 96 84 75 78 58 46 38 39
289 264 261 276 272 267 271 277 231 292 234 234 252 241 210 206 203 222 223 198 155 161 168 167 168 162 165 159 154 151 154 150 134 127 126 128 127 125 119 107 96 87 78 77 51 61 53 48 38
266 269 260 217 272 268 266 313 305 299 268 250 239 255 215 193 193 211 209 190 156 162 160 165 161 163 161 151 149 145 127 125 120 122 125 122 124 119 112 103 93 83 75 76 75 68 58 54 45
277 271 236 259 249 272 290 284 308 330 316 327 275 282 202 178 195 203 195 167 149 155 152 166 162 164 152 147 142 128 120 118 113 119 118 116 114 113 103 97 88 80 76 72 70 71 56 51 49
256 247 253 234 263 257 275 251 340 332 326 301 308 250 279 182 196 176 174 145 144 154 155 164 166 154 147 142 129 123 120 112 125 122 116 114 108 104 101 99 93 92 84 78 71 64 59 56 48